Regional Weather Roundup
Issued by NWS Kansas City/Pleasant Hill, MO

Home | Current Version | Previous Version | Text Only | Print | Product List | Glossary On
Versions: 1 2 3 4 5 6 7 8 9 10 11 12 13 14 15 16 17 18 19 20 21 22 23 24 25 26 27
000
ASUS43 KEAX 302010
RWREAX

WEATHER ROUNDUP FOR EASTERN KANSAS AND NORTHWEST MISSOURI
NATIONAL WEATHER SERVICE KANSAS CITY/PLEASANT HILL MO
300 PM CDT MON MAY 30 2016

KSZ040-057-103>105-MOZ028-029-037-043-302100-
...KANSAS CITY METROPOLITAN AREA...

CITY           SKY/WX    TMP DP  RH WIND       PRES   REMARKS
K.C. INTL      TSTM      68  62  81 S16G32    30.00R
K.C. DOWNTOWN  CLOUDY    74  58  57 S10       30.00R
LEES SUMMIT    CLOUDY    72  59  63 S17G24    30.03R
OLATHE - IXD   CLOUDY    75  64  68 E6        30.02F
OLATHE - OJC   LGT RAIN  69  64  84 SE15      30.03S
LAWRENCE       MOSUNNY   81  65  58 SE17      29.98S

$$

MOZ001>008-011>017-020>025-030>033-038>040-044>046-053-054-302100-
...NORTHERN AND CENTRAL MISSOURI...

CITY           SKY/WX    TMP DP  RH WIND       PRES   REMARKS
ST. JOSEPH     PTSUNNY   85  64  49 S8        29.95F
MOSBY          CLOUDY    79  64  61 S7        30.00R
WARRENSBURG    CLOUDY    81  63  54 SE6       30.00S
WHITEMAN AFB   CLOUDY    81  66  60 S10       29.99F
CLINTON        CLOUDY    77  68  73 SW17G24   30.03R
SEDALIA        CLOUDY    81  65  58 S8        30.02F
WARSAW         NOT AVBL
CHILLICOTHE      N/A     84  64  50 S8        29.99S
KIRKSVILLE     CLOUDY    84  65  52 S9        30.01S

$$

MOZ041-047>049-056>058-063>065-088>090-097-302100-
...EASTERN AND SOUTHERN MISSOURI...

CITY           SKY/WX    TMP DP  RH WIND       PRES   REMARKS
ST. LOUIS INTL CLOUDY    85  60  42 SE12      30.02F
SPIRIT OF STL  MOSUNNY   89  58  34 CALM      30.00F
COLUMBIA       CLOUDY    83  63  50 S7        30.02S
JEFFERSON CITY PTSUNNY   85  61  44 VRB7      30.00F
ROLLA          CLOUDY    81  62  52 S7        30.03S
SPRINGFIELD    CLOUDY    72  59  63 W10       30.07R
BRANSON        CLOUDY    72  63  73 CALM      30.07F
JOPLIN         CLOUDY    69  68  96 VRB6      30.05F
WEST PLAINS    CLOUDY    82  62  50 SE9       30.05F

$$

IAZ060-094-KSZ022-034>040-054-083-096-NEZ052-066-093-302100-
...KANSAS...SOUTHEAST NEBRASKA AND IOWA...

CITY           SKY/WX    TMP DP  RH WIND       PRES   REMARKS
TOPEKA         MOSUNNY   83  64  52 S15       29.96F
MANHATTAN      SUNNY     85  61  44 SW13      29.94F
EMPORIA        CLOUDY    81  61  50 S12G23    29.99S
CHANUTE        CLOUDY    75  64  68 S7        30.02F
WICHITA        MOSUNNY   82  60  47 S9        29.96F
OMAHA          PTSUNNY   88  60  38 S12       29.90F
LINCOLN        SUNNY     85  63  47 S15       29.91F
FALLS CITY     MOSUNNY   85  63  47 S10G22    29.93F
LAMONI         MOSUNNY   84  62  47 S12G17    29.97F
DES MOINES     MOSUNNY   87  59  38 SW13      29.94F

$$





USA.gov is the U.S. government's official web portal to all federal, state and local government web resources and services.